Regional Weather Roundup
Issued by NWS Cleveland, OH

Home | Current Version | Previous Version | Graphics & Text | Print | Product List | Glossary On
Versions: 1 2 3 4 5 6 7 8 9 10 11 12 13 14 15 16 17 18 19 20 21 22 23 24 25 26 27 28 29 30 31 32 33 34 35 36 37 38 39 40 41 42 43 44 45 46 47 48 49 50
000
ASUS41 KCLE 081302
RWRCLE
OHIO REGIONAL WEATHER ROUNDUP
NATIONAL WEATHER SERVICE CLEVELAND, OH
800 AM EST MON FEB 08 2016

NOTE: "FAIR" INDICATES FEW OR NO CLOUDS BELOW 12,000 FEET WITH NO
SIGNIFICANT WEATHER AND/OR OBSTRUCTIONS TO VISIBILITY.

OHZ001>008-015>018-024>027-034-035-043-044-081400-
   NORTHWEST OHIO

CITY           SKY/WX    TMP DP  RH WIND       PRES   REMARKS
DEFIANCE       CLEAR     32  28  85 CALM      29.64F
FINDLAY        CLOUDY    35  30  82 W7        29.62F WCI  29
TOLEDO EXPRESS CLOUDY    32  29  88 SW6       29.63S WCI  26
TOLEDO EXEC    CLOUDY    34  30  85 W6        29.64R WCI  29
LIMA           CLOUDY    33  30  88 W8        29.63S WCI  26
$$

OHZ009>014-019>023-028>033-038-089-081400-
   NORTHEAST OHIO

CITY           SKY/WX    TMP DP  RH WIND       PRES   REMARKS
CLE-HOPKINS    LGT RAIN  38  34  85 S6        29.65F
CLE-LAKEFRONT  CLOUDY    39  34  82 SE6       29.62F
CUY CO. ARPT   CLOUDY    39  34  81 S6        29.63F
LORAIN-ELYRIA  LGT RAIN  37  34  89 S6        29.62F
ASHTABULA      PTCLDY    34  25  69 S5        29.65F WCI  30
AKRON-CANTON   LGT RAIN  37  24  59 SE6       29.62F
WOOSTER        LGT RAIN  35  31  85 CALM      29.62F
MANSFIELD      CLOUDY    36  35  96 S7        29.60F
YOUNGSTOWN     MOCLDY    33  24  69 SE7       29.65S WCI  27
$$

OHZ042-051>053-060>062-070>072-077>081-081400-
  SOUTHWEST OHIO

CITY           SKY/WX    TMP DP  RH WIND       PRES   REMARKS
CINC-COVINGTON LGT RAIN  35  33  92 W8        29.66F WCI  29
CINC-LUNKEN    LGT RAIN  37  35  92 SW10      29.68F
HAMILTON       CLOUDY    38  32  79 W7        29.67F
DAYTON         CLOUDY    34  34 100 W3        29.64F
WRIGHT-PAT AFB CLOUDY    32  32 100 S2        29.64F FOG
DAYTON GENERAL MOCLDY    36  33  89 SW3       29.63F
WILMINGTON     CLOUDY    34  33  96 SW6       29.63F WCI  29
$$

OHZ036-037-039>041-045>050-054>059-063>069-073>076-082>088-081400-
  CENTRAL AND SOUTHEAST OHIO

CITY           SKY/WX    TMP DP  RH WIND       PRES   REMARKS
COLUMBUS       LGT RAIN  38  37  97 SW3       29.62F
OSU AIRPORT    LGT RAIN  36  34  92 NW8       29.62S
BOLTON FIELD   RAIN      36  34  93 W6        29.64S
RICKENBACK AFB NOT AVBL
NEWARK         LGT RAIN  39  34  82 S7        29.62F
MARION         LGT SNOW  33  30  88 W5        29.63S VSB 1   WCI  29
LANCASTER      LGT RAIN  36  33  89 SW7       29.64S
ZANESVILLE     CLOUDY    38  24  57 SE3       29.63F
NEW PHILLY     CLOUDY    36  25  64 SE3       29.64F
$$



USA.gov is the U.S. government's official web portal to all federal, state and local government web resources and services.